Location: Elstree
(51.6403°N, 0.2969°W)
Time: 13:39:08
(UTC+00:00)

Cosmos 1943 Rocket - Pass Details

Date: 03 March 2021
Orbit: 811 x 844 km, 71.0° (Epoch: 13 April)

Event Time Altitude Azimuth Distance (km) Brightness Sun altitude
Rises 18:56:47 0° 323° (NW) 3,414 6.0 -11.9°
Reaches altitude 10° 19:00:53 10° 352° (N) 2,478 4.8 -12.5°
Maximum altitude 19:03:20 13° 17° (NNE) 2,287 4.3 -12.9°
Drops below altitude 10° 19:05:46 10° 43° (NE) 2,475 4.3 -13.3°
Enters shadow 19:06:45 - 52° (NE) 2,644 4.4 -13.4°
